Weather History for Clovis, NM

Change the Weather History Date:

Friday, April 26, 2013

  Actual Average Record
Temperature  
Mean Temperature 60 °F -  
Max Temperature 78 °F 74 °F 93 °F (1927)
Min Temperature 42 °F 44 °F 28 °F (1920)
Degree Days  
Heating Degree Days 5    
Growing Degree Days 10 (Base 50)    
Moisture  
Dew Point 36 °F    
Average Humidity 46    
Maximum Humidity 87    
Minimum Humidity 15    
Precipitation  
Precipitation 0.00 in - - ()
Sea Level Pressure  
Sea Level Pressure 30.09 in    
Wind  
Wind Speed 15 mph (WNW)    
Max Wind Speed 28 mph    
Max Gust Speed 33 mph    
Visibility 10 miles    
Events      
Averages and records for this station are not official NWS values.
T = Trace of Precipitation, MM = Missing Value Source: NWS Daily Summary

Daily Weather History Graph

Daily Weather History Graph

Search for Another Location

Airport:

Trip Planner

Search our weather history database for the weather conditions in past years. The results will help you decide how hot, cold, wet, or windy it might be!

Date:

Astronomy

Apr. 26, 2013 Rise Set
Actual Time 6:07 AM MDT 7:33 PM MDT
Civil Twilight 5:41 AM MDT 7:59 PM MDT
Nautical Twilight 5:09 AM MDT 8:31 PM MDT
Astronomical Twilight 4:36 AM MDT 9:04 PM MDT
Moon 8:54 PM MDT (4/26) 6:39 AM MDT (4/26)
Length of Visible Light 14h 18m
Length of Day
13h 25m
Full, 99% of the Moon is Illuminated
Apr 26
Full
May 2
Last Quarter
May 9
New
May 17
First Quarter
May 24
Full

Hourly Weather History & Observations

Time (MDT) Temp. Windchill Dew Point Humidity Pressure Visibility Wind Dir Wind Speed Gust Speed Precip Events Conditions
12:15 AM 55.4 °F - 42.8 °F 63% 30.03 in 10.0 mi SSE 12.7 mph - N/A   Clear
12:35 AM 55.4 °F - 44.6 °F 67% 30.03 in 10.0 mi SSE 13.8 mph - N/A   Clear
1:15 AM 53.6 °F - 44.6 °F 72% 30.05 in 10.0 mi South 16.1 mph - N/A   Clear
1:35 AM 53.6 °F - 44.6 °F 72% 30.04 in 10.0 mi South 12.7 mph 23.0 mph N/A   Clear
1:55 AM 53.6 °F - 44.6 °F 72% 30.02 in 10.0 mi South 19.6 mph 23.0 mph N/A   Clear
2:15 AM 53.6 °F - 44.6 °F 72% 30.01 in 10.0 mi South 16.1 mph 23.0 mph N/A   Clear
2:35 AM 51.8 °F - 44.6 °F 76% 30.01 in 10.0 mi South 13.8 mph - N/A   Clear
2:55 AM 51.8 °F - 44.6 °F 76% 30.03 in 10.0 mi SSW 12.7 mph - N/A   Clear
3:15 AM 50.0 °F - 42.8 °F 76% 30.03 in 10.0 mi SSW 9.2 mph - N/A   Clear
3:35 AM 48.2 °F - 42.8 °F 82% 30.03 in 10.0 mi SSW 9.2 mph - N/A   Clear
3:55 AM 48.2 °F - 41.0 °F 76% 30.03 in 10.0 mi SSW 10.4 mph - N/A   Clear
4:15 AM 48.2 °F - 42.8 °F 82% 30.03 in 10.0 mi SSW 11.5 mph - N/A   Clear
4:35 AM 48.2 °F - 42.8 °F 82% 30.03 in 10.0 mi SSW 10.4 mph - N/A   Clear
4:55 AM 46.4 °F 41.9 °F 41.0 °F 81% 30.03 in 10.0 mi SSW 9.2 mph - N/A   Clear
5:15 AM 46.4 °F 42.9 °F 39.2 °F 76% 30.03 in 10.0 mi South 6.9 mph - N/A   Clear
5:35 AM 44.6 °F 40.7 °F 37.4 °F 76% 30.03 in 10.0 mi South 6.9 mph - N/A   Clear
5:55 AM 42.8 °F 37.5 °F 37.4 °F 81% 30.03 in 10.0 mi SSW 9.2 mph - N/A   Clear
6:15 AM 42.8 °F 37.5 °F 37.4 °F 81% 30.03 in 10.0 mi SSW 9.2 mph - N/A   Clear
6:35 AM 42.8 °F 39.3 °F 37.4 °F 81% 30.04 in 10.0 mi SW 5.8 mph - N/A   Clear
6:55 AM 42.8 °F 38.6 °F 39.2 °F 87% 30.05 in 10.0 mi SSW 6.9 mph - N/A   Clear
7:15 AM 46.4 °F 41.5 °F 42.8 °F 87% 30.06 in 10.0 mi SSW 10.4 mph - N/A   Clear
7:35 AM 48.2 °F - 42.8 °F 82% 30.06 in 10.0 mi SSW 9.2 mph - N/A   Clear
7:55 AM 51.8 °F - 42.8 °F 71% 30.07 in 10.0 mi SW 10.4 mph - N/A   Clear
8:15 AM 53.6 °F - 42.8 °F 67% 30.06 in 10.0 mi WSW 17.3 mph - N/A   Clear
8:35 AM 55.4 °F - 41.0 °F 58% 30.06 in 10.0 mi WSW 16.1 mph - N/A   Clear
8:55 AM 57.2 °F - 41.0 °F 55% 30.07 in 10.0 mi West 17.3 mph - N/A   Clear
9:15 AM 60.8 °F - 42.8 °F 52% 30.07 in 10.0 mi WSW 15.0 mph 19.6 mph N/A   Clear
9:35 AM 64.4 °F - 39.2 °F 40% 30.06 in 10.0 mi WSW 12.7 mph 19.6 mph N/A   Clear
9:55 AM 68.0 °F - 37.4 °F 33% 30.06 in 10.0 mi West 19.6 mph 31.1 mph N/A   Clear
10:15 AM 69.8 °F - 35.6 °F 28% 30.06 in 9.0 mi West 20.7 mph 26.5 mph N/A   Clear
10:35 AM 71.6 °F - 33.8 °F 25% 30.06 in 10.0 mi West 24.2 mph 32.2 mph N/A   Clear
10:55 AM 71.6 °F - 30.2 °F 22% 30.07 in 10.0 mi West 21.9 mph 27.6 mph N/A   Clear
11:15 AM 73.4 °F - 30.2 °F 20% 30.07 in 10.0 mi West 21.9 mph 27.6 mph N/A   Clear
11:35 AM 73.4 °F - 28.4 °F 19% 30.07 in 10.0 mi West 20.7 mph 29.9 mph N/A   Clear
11:55 AM 73.4 °F - 28.4 °F 19% 30.07 in 10.0 mi West 20.7 mph 25.3 mph N/A   Clear
12:15 PM 75.2 °F - 28.4 °F 18% 30.07 in 10.0 mi NW 19.6 mph 27.6 mph N/A   Clear
12:35 PM 75.2 °F - 28.4 °F 18% 30.06 in 10.0 mi WNW 19.6 mph 28.8 mph N/A   Clear
12:55 PM 75.2 °F - 26.6 °F 17% 30.06 in 10.0 mi West 13.8 mph 23.0 mph N/A   Clear
1:15 PM 77.0 °F - 26.6 °F 16% 30.06 in 10.0 mi West 21.9 mph 26.5 mph N/A   Clear
1:35 PM 78.8 °F - 28.4 °F 16% 30.06 in 10.0 mi NNW 16.1 mph 27.6 mph N/A   Clear
1:55 PM 78.8 °F - 28.4 °F 16% 30.06 in 10.0 mi WNW 19.6 mph 31.1 mph N/A   Clear
2:15 PM 78.8 °F - 28.4 °F 16% 30.07 in 10.0 mi NW 20.7 mph 27.6 mph N/A   Clear
2:35 PM 78.8 °F - 26.6 °F 15% 30.07 in 10.0 mi NNW 15.0 mph 27.6 mph N/A   Clear
2:55 PM 78.8 °F - 30.2 °F 17% 30.07 in 10.0 mi North 20.7 mph 27.6 mph N/A   Scattered Clouds
3:15 PM 78.8 °F - 33.8 °F 20% 30.07 in 10.0 mi North 21.9 mph 29.9 mph N/A   Scattered Clouds
3:35 PM 78.8 °F - 33.8 °F 20% 30.08 in 10.0 mi North 20.7 mph 31.1 mph N/A   Partly Cloudy
3:55 PM 77.0 °F - 33.8 °F 21% 30.08 in 10.0 mi NNW 21.9 mph 27.6 mph N/A   Clear
4:15 PM 77.0 °F - 33.8 °F 21% 30.08 in 10.0 mi North 20.7 mph 28.8 mph N/A   Clear
4:35 PM 77.0 °F - 33.8 °F 21% 30.09 in 10.0 mi North 18.4 mph 31.1 mph N/A   Partly Cloudy
4:55 PM 77.0 °F - 33.8 °F 21% 30.09 in 10.0 mi NNW 23.0 mph 28.8 mph N/A   Partly Cloudy
5:15 PM 75.2 °F - 32.0 °F 21% 30.11 in 10.0 mi North 18.4 mph - N/A   Partly Cloudy
5:35 PM 73.4 °F - 30.2 °F 20% 30.12 in 10.0 mi North 24.2 mph 29.9 mph N/A   Clear
5:55 PM 73.4 °F - 33.8 °F 23% 30.12 in 10.0 mi North 25.3 mph 28.8 mph N/A   Clear
6:15 PM 73.4 °F - 32.0 °F 22% 30.14 in 10.0 mi NNE 27.6 mph 33.4 mph N/A   Clear
6:35 PM 71.6 °F - 30.2 °F 22% 30.15 in 10.0 mi NNE 27.6 mph 33.4 mph N/A   Clear
6:55 PM 68.0 °F - 30.2 °F 24% 30.15 in 10.0 mi NNE 26.5 mph - N/A   Clear
7:15 PM 66.2 °F - 30.2 °F 26% 30.16 in 10.0 mi NNE 21.9 mph 29.9 mph N/A   Clear
7:35 PM 64.4 °F - 32.0 °F 30% 30.17 in 10.0 mi NE 18.4 mph 23.0 mph N/A   Clear
7:55 PM 62.6 °F - 33.8 °F 34% 30.18 in 10.0 mi NE 17.3 mph - N/A   Clear
8:15 PM 60.8 °F - 33.8 °F 36% 30.19 in 10.0 mi NE 16.1 mph - N/A   Clear
8:35 PM 60.8 °F - 35.6 °F 39% 30.21 in 10.0 mi NNE 17.3 mph 21.9 mph N/A   Clear
8:55 PM 59.0 °F - 33.8 °F 39% 30.22 in 10.0 mi NNE 16.1 mph - N/A   Clear
9:15 PM 57.2 °F - 33.8 °F 41% 30.23 in 10.0 mi NNE 11.5 mph - N/A   Clear
9:35 PM 55.4 °F - 33.8 °F 44% 30.23 in 10.0 mi NE 10.4 mph - N/A   Clear
9:55 PM 53.6 °F - 33.8 °F 47% 30.23 in 10.0 mi NNE 11.5 mph - N/A   Clear
10:15 PM 53.6 °F - 33.8 °F 47% 30.23 in 10.0 mi NNE 12.7 mph - N/A   Clear
10:35 PM 51.8 °F - 33.8 °F 50% 30.23 in 10.0 mi NNE 9.2 mph - N/A   Clear
10:55 PM 51.8 °F - 35.6 °F 54% 30.23 in 10.0 mi NNE 11.5 mph - N/A   Clear
11:15 PM 51.8 °F - 33.8 °F 50% 30.22 in 10.0 mi NNE 9.2 mph - N/A   Clear
11:35 PM 50.0 °F - 33.8 °F 54% 30.23 in 10.0 mi NNE 11.5 mph - N/A   Clear
11:55 PM 50.0 °F - 33.8 °F 54% 30.23 in 10.0 mi NNE 10.4 mph - N/A   Clear